[[{"header":{"parameterUnit":"m.s-1","parameterCategory":1,"la1":30.2991,"la2":30.254,"lo1":-89.0895,"lo2":-89.0444,"dy":0.0017,"dx":0.0017,"nx":28,"ny":28,"refTime":"2023-08-03T03:00:00:Z","depth":0,"parameterNumber":2,"parameterNumberName":"U-component_of_WINDS"},"data":[0,0,0,0,0,0,0,0,0,0,0,0,0,0,0,0,0,0,0,0,0,0,0,0,0,0,0,0,0,0,0,0,0,0,0,0,0,0,0,0,0,0,0,0,0,0,0,0,0,0,0,0,0,0,0,0,0,0,1.3236,1.3238,0,1.3364,1.3365,1.3367,1.338,1.3379,1.3377,1.3376,1.351,1.3514,1.3519,0,0,0,0,0,0,0,0,0,0,0,0,0,1.3006,1.301,1.3236,1.3238,1.3239,1.3363,1.3365,1.3367,1.338,1.3379,1.3377,1.3376,1.3508,1.3514,1.3519,0,0,0,0,0,0,0,0,0,0,0,0,0,1.3117,1.3011,1.3236,1.3261,1.3264,1.3363,1.3365,1.3367,1.3381,1.3379,1.3377,1.3375,1.3506,1.3513,1.352,1.3604,0,0,1.3542,1.3545,0,0,0,0,0,0,0,0,1.311,1.3125,1.3256,1.3259,1.3263,1.3354,1.3333,1.3447,1.3381,1.3337,1.3376,1.3374,1.346,1.347,1.3499,1.361,1.3616,1.3543,1.3547,1.355,1.3552,0,0,0,0,0,0,0,1.3103,1.312,1.3287,1.3257,1.3262,1.3266,1.328,1.3355,1.3408,1.334,1.3342,1.3356,1.3461,1.3492,1.3502,1.3618,1.3543,1.3549,1.3553,1.3556,1.3802,1.3804,0,0,0,0,0,0,1.309,1.3113,1.3283,1.3291,1.318,1.3272,1.3287,1.3327,1.3407,1.3417,1.3358,1.3356,1.3481,1.3494,1.3507,1.3609,1.355,1.3557,1.3561,1.38,1.3803,1.3805,0,0,0,0,0,0,1.3085,1.3105,1.3278,1.3202,1.3225,1.3278,1.3322,1.333,1.3361,1.342,1.343,1.3379,1.348,1.3497,1.3579,1.3613,1.356,1.3567,1.3797,1.3801,1.3804,1.3813,0,0,0,0,0,0,1.3078,1.3103,1.3135,1.3203,1.3228,1.3347,1.3325,1.3334,1.3373,1.3372,1.3443,1.3452,1.3479,1.3568,1.3586,1.3622,1.3572,1.3795,1.3799,1.3803,1.381,1.3817,1.3822,0,0,0,0,0,1.307,1.3134,1.3137,1.3157,1.3269,1.3349,1.3364,1.3393,1.3376,1.3408,1.3446,1.345,1.3607,1.3576,1.3597,1.3636,1.3793,1.3798,1.3803,1.3808,1.3815,1.3822,0,0,0,0,0,0,1.307,1.3143,1.3147,1.3234,1.3285,1.3351,1.3393,1.34,1.3458,1.3455,1.3489,1.3505,1.3585,1.3619,1.3584,1.372,1.3698,1.3707,1.3695,1.3703,1.3709,1.3699,1.3578,0,0,0,0,0,1.308,1.3138,1.3199,1.327,1.3295,1.334,1.3375,1.3393,1.3447,1.3469,1.3513,1.3567,1.3628,1.3667,1.3727,1.3815,1.383,1.3852,1.3858,1.3862,1.387,1.3918,1.3928,1.3822,1.3822,1.3822,0,0,1.3101,1.3148,1.3183,1.3271,1.3312,1.3372,1.3358,1.3422,1.3466,1.3479,1.3559,1.3593,1.3655,1.374,1.378,1.377,1.3903,1.3869,1.3872,1.3877,1.3924,1.3934,1.3943,1.3825,1.3825,1.3824,0,0,1.317,1.3212,1.3275,1.3316,1.3379,1.3408,1.3423,1.3488,1.351,1.359,1.3601,1.3655,1.376,1.3803,1.3838,1.3922,1.3928,1.3941,1.3972,1.4018,1.4026,1.4034,1.4063,1.4073,1.3948,1.3948,1.3948,0,1.3189,1.3278,1.3307,1.337,1.3408,1.3421,1.3485,1.3524,1.3604,1.363,1.3618,1.3748,1.3791,1.3886,1.3906,1.3935,1.3953,1.3933,1.4023,1.4031,1.4038,1.4066,1.4077,1.3949,1.3949,1.3949,1.3949,0,1.3297,1.3359,1.3403,1.3477,1.352,1.3583,1.3622,1.3662,1.3676,1.3706,1.3787,1.3839,1.3908,1.3932,1.3947,1.4029,1.4021,1.4016,1.3994,1.4049,1.4075,1.4086,1.3951,1.3951,1.395,1.395,0,0,1.337,1.3458,1.3474,1.3507,1.3576,1.3625,1.3689,1.3755,1.3789,1.3843,1.3896,1.3984,1.3979,1.402,1.4039,1.408,1.4141,1.407,1.4072,1.408,1.4233,1.4236,1.4247,1.4145,1.4148,1.4149,1.4227,0,1.3445,1.3558,1.3585,1.3682,1.3739,1.3752,1.3808,1.3856,1.3886,1.3939,1.3972,1.4033,1.4023,1.4047,1.4088,1.4125,1.4172,1.412,1.4196,1.4198,1.4179,1.4262,1.4265,1.4336,1.4238,1.424,1.4241,0,1.3549,1.3604,1.3705,1.3766,1.3791,1.384,1.3903,1.3953,1.4009,1.4027,1.4071,1.4087,1.4153,1.4129,1.4221,1.4184,1.4217,1.424,1.4244,1.4251,1.4222,1.427,1.436,1.437,1.4258,1.4257,1.4256,0,1.359,1.3689,1.3762,1.3791,1.3864,1.3898,1.393,1.3983,1.4021,1.4076,1.4101,1.4164,1.4198,1.4246,1.4278,1.4257,1.4367,1.4345,1.4384,1.4383,1.4406,1.4404,1.45,1.4429,1.4428,1.4428,1.4428,0,1.3671,1.3732,1.3781,1.3826,1.3895,1.3926,1.3994,1.4026,1.4074,1.4125,1.4141,1.4189,1.4229,1.4282,1.4308,1.4379,1.4395,1.4412,1.4418,1.441,1.4407,1.4431,1.4426,1.4431,1.443,1.443,1.4429,0,1.3728,1.3763,1.3844,1.3906,1.3923,1.3971,1.4024,1.4068,1.4098,1.4163,1.418,1.4228,1.4291,1.4328,1.4409,1.4425,1.4505,1.4509,1.4485,1.4488,1.4524,1.4519,1.4638,1.4655,1.4573,1.4574,1.4574,0,1.3776,1.3824,1.3891,1.3926,1.3958,1.4015,1.4053,1.4086,1.4125,1.4191,1.4227,1.4291,1.4344,1.4445,1.4487,1.4549,1.4554,1.4591,1.4563,1.4553,1.4553,1.4549,1.4553,1.4595,1.4596,1.4597,1.4597,0,1.3859,1.3874,1.3928,1.3989,1.4034,1.4083,1.4132,1.416,1.42,1.4244,1.4308,1.4349,1.4431,1.4494,1.4559,1.4592,1.4601,1.4606,1.4618,1.461,1.4594,1.4601,1.4497,1.4603,1.4602,1.4602,1.4602,1.4601,1.3912,1.3954,1.4008,1.4067,1.4107,1.4152,1.4196,1.4231,1.4286,1.4354,1.437,1.4437,1.4491,1.4578,1.4613,1.4667,1.466,1.4678,1.4682,1.4686,1.4686,1.4586,1.4679,1.4679,1.4679,1.4679,1.4679,0,1.3994,1.4029,1.4084,1.4151,1.4198,1.4202,1.4256,1.4295,1.4354,1.4402,1.4454,1.4528,1.4589,1.4635,1.4698,1.4732,1.4737,1.4747,1.4744,1.4751,1.4689,1.4672,1.4741,1.4741,1.4741,1.4741,1.4741,1.4741,1.4042,1.4113,1.4134,1.4225,1.426,1.4325,1.4356,1.4397,1.4436,1.4517,1.4568,1.4597,1.4645,1.4711,1.4767,1.4779,1.4801,1.481,1.4822,1.4763,1.4756,1.475,1.4733,1.4814,1.4814,1.488,1.488,1.4881]},{"header":{"parameterUnit":"m.s-1","parameterCategory":1,"la1":30.2991,"la2":30.254,"lo1":-89.0895,"lo2":-89.0444,"dy":0.0017,"dx":0.0017,"nx":28,"ny":28,"refTime":"2023-08-03T03:00:00:Z","depth":0,"parameterNumber":3,"parameterNumberName":"V-component_of_WINDS"},"data":[0,0,0,0,0,0,0,0,0,0,0,0,0,0,0,0,0,0,0,0,0,0,0,0,0,0,0,0,0,0,0,0,0,0,0,0,0,0,0,0,0,0,0,0,0,0,0,0,0,0,0,0,0,0,0,0,0,0,4.0192,4.0192,0,4.0167,4.0167,4.0167,4.0157,4.0157,4.0157,4.0157,4.0129,4.0128,4.0128,0,0,0,0,0,0,0,0,0,0,0,0,0,4.0228,4.0227,4.0192,4.0192,4.0192,4.0168,4.0167,4.0167,4.0157,4.0157,4.0157,4.0157,4.013,4.0129,4.0128,0,0,0,0,0,0,0,0,0,0,0,0,0,4.0209,4.0227,4.0192,4.0184,4.0183,4.0168,4.0167,4.0167,4.0157,4.0157,4.0157,4.0157,4.013,4.0129,4.0127,4.0118,0,0,4.0124,4.0123,0,0,0,0,0,0,0,0,4.021,4.0207,4.0186,4.0185,4.0183,4.0166,4.0169,4.015,4.0157,4.0167,4.0157,4.0157,4.0141,4.0139,4.0134,4.0117,4.0115,4.0124,4.0123,4.0122,4.0122,0,0,0,0,0,0,0,4.0211,4.0208,4.0182,4.0185,4.0184,4.018,4.0178,4.0166,4.0154,4.0166,4.0165,4.0163,4.014,4.0135,4.0133,4.0115,4.0124,4.0123,4.0122,4.0121,4.0085,4.0085,0,0,0,0,0,0,4.0214,4.0209,4.0183,4.0182,4.0197,4.018,4.0177,4.0171,4.0154,4.0151,4.0162,4.0162,4.0137,4.0135,4.0132,4.0118,4.0122,4.0121,4.0121,4.0086,4.0085,4.0085,0,0,0,0,0,0,4.0215,4.0212,4.0184,4.0195,4.0192,4.0179,4.0173,4.0171,4.0165,4.0151,4.0149,4.0159,4.0137,4.0134,4.0121,4.0117,4.0121,4.012,4.0086,4.0086,4.0085,4.0091,0,0,0,0,0,0,4.0216,4.0212,4.021,4.0195,4.0191,4.0175,4.0173,4.017,4.0163,4.0163,4.0148,4.0145,4.0137,4.0123,4.012,4.0116,4.0119,4.0086,4.0086,4.0085,4.0091,4.0091,4.0091,0,0,0,0,0,4.0217,4.0212,4.021,4.0206,4.0187,4.0175,4.0172,4.0164,4.0163,4.016,4.015,4.0146,4.0118,4.0122,4.0118,4.0113,4.0086,4.0086,4.0085,4.0091,4.0091,4.0091,0,0,0,0,0,0,4.0226,4.021,4.0207,4.0197,4.0187,4.0173,4.0168,4.0164,4.0153,4.0153,4.0142,4.0138,4.0126,4.0118,4.0123,4.0102,4.0102,4.01,4.0107,4.0107,4.0107,4.0109,4.0118,0,0,0,0,0,4.0227,4.0219,4.0205,4.0198,4.0193,4.0181,4.0176,4.017,4.0159,4.0154,4.0144,4.0132,4.0121,4.0114,4.0102,4.009,4.0085,4.0085,4.0084,4.0084,4.0083,4.0074,4.0073,4.0083,4.0083,4.0083,0,0,4.0228,4.0219,4.0214,4.0199,4.0191,4.0181,4.0178,4.0169,4.0161,4.0152,4.014,4.0131,4.0117,4.0104,4.0098,4.0098,4.0079,4.0084,4.0084,4.0083,4.0073,4.0072,4.0071,4.0083,4.0083,4.0083,0,0,4.0226,4.0219,4.0211,4.0202,4.019,4.0182,4.018,4.0166,4.016,4.0147,4.014,4.013,4.0111,4.0101,4.0093,4.0085,4.0079,4.0081,4.008,4.0071,4.007,4.007,4.0065,4.0064,4.008,4.008,4.008,0,4.0229,4.0216,4.0207,4.0198,4.0191,4.0183,4.0174,4.0166,4.015,4.0144,4.0144,4.0118,4.0109,4.0092,4.009,4.0084,4.008,4.0083,4.0071,4.0071,4.007,4.0065,4.0064,4.008,4.008,4.008,4.008,0,4.022,4.021,4.0206,4.0191,4.0183,4.0174,4.0162,4.0155,4.0149,4.0141,4.0126,4.0114,4.0099,4.0095,4.0089,4.0076,4.0076,4.0074,4.0073,4.0069,4.0064,4.0063,4.0081,4.0081,4.0081,4.0081,0,0,4.0224,4.0203,4.0201,4.0193,4.0178,4.017,4.0159,4.0145,4.0138,4.0127,4.0117,4.01,4.0097,4.0088,4.0081,4.0073,4.0065,4.0071,4.0071,4.007,4.0048,4.0049,4.0048,4.0061,4.0061,4.0061,4.0049,0,4.0219,4.0201,4.0192,4.0177,4.0167,4.0159,4.0149,4.0137,4.0129,4.0118,4.0107,4.0095,4.0093,4.0087,4.0079,4.0068,4.006,4.0069,4.005,4.0049,4.0053,4.0046,4.0048,4.0037,4.0047,4.0047,4.0047,0,4.0211,4.02,4.0185,4.0169,4.0164,4.0156,4.0141,4.0131,4.0117,4.0111,4.01,4.0093,4.0079,4.008,4.006,4.0065,4.0057,4.005,4.0049,4.0047,4.0048,4.0042,4.0034,4.0032,4.0044,4.0044,4.0044,0,4.0214,4.0195,4.0183,4.0177,4.0158,4.0152,4.0144,4.013,4.0121,4.0108,4.0102,4.0087,4.0078,4.0066,4.0053,4.0055,4.0034,4.0034,4.0027,4.0027,4.0023,4.0023,4.0012,4.0018,4.0018,4.0018,4.0018,0,4.0209,4.02,4.0184,4.0176,4.0165,4.0153,4.0142,4.0132,4.012,4.0109,4.01,4.0089,4.0074,4.0061,4.0051,4.0035,4.0031,4.0025,4.0022,4.0025,4.0026,4.0019,4.0019,4.0018,4.0018,4.0018,4.0018,0,4.0211,4.02,4.0186,4.0169,4.0164,4.0156,4.0141,4.0132,4.0122,4.0108,4.0104,4.0088,4.0072,4.0059,4.0038,4.0031,4.0014,4.0011,4.0019,4.0017,4.0011,4.0011,3.9995,3.9991,4.0001,4.0001,4.0001,0,4.0209,4.0201,4.0183,4.0176,4.0168,4.0156,4.0147,4.0134,4.0125,4.0107,4.01,4.0083,4.007,4.0044,4.0029,4.0012,4.0009,4.0004,4.0006,4.0009,4.0007,4.0007,4.0006,4.0004,4.0004,4.0004,4.0004,0,4.0205,4.02,4.0188,4.0174,4.0163,4.0151,4.0139,4.0133,4.0118,4.0107,4.0091,4.008,4.0058,4.0041,4.0022,4.0011,4.0004,4.0003,4.0,4.0003,4.0008,4.0004,4.0018,4.0003,4.0003,4.0003,4.0003,4.0003,4.0204,4.0197,4.0182,4.0169,4.0158,4.0146,4.0137,4.0125,4.0112,4.0094,4.0087,4.007,4.0052,4.0026,4.0015,4.0,3.9999,3.9996,3.9995,3.9994,3.9994,4.001,3.9997,3.9997,3.9997,3.9997,3.9997,0,4.02,4.019,4.0177,4.016,4.0149,4.0144,4.0129,4.0119,4.0105,4.009,4.0077,4.0057,4.0039,4.0023,4.0004,3.9995,3.9991,3.999,3.999,3.9988,3.9997,4.0,3.9994,3.9994,3.9994,3.9994,3.9994,3.9994,4.0196,4.0182,4.0174,4.0154,4.0144,4.0128,4.012,4.0107,4.0096,4.0074,4.006,4.005,4.0033,4.0013,3.9996,3.9991,3.9984,3.9984,3.9978,3.9987,3.9987,3.9988,3.9991,3.9983,3.9983,3.9971,3.997,3.997]}]]